Location: Bemmer
(51.5498°N, 5.6249°E)
Time: 11:44:37
(UTC+00:00)

USA 306 - Pass Details

Date: 03 March 2021
Orbit: 564 x 577 km, 54.0° (Epoch: 16 April)

Event Time Altitude Azimuth Distance (km) Brightness Sun altitude
Rises 19:59:37 0° 285° (WNW) 2,773 7.8 -24.9°
Reaches altitude 10° 20:01:53 10° 288° (WNW) 1,872 6.6 -25.2°
Enters shadow 20:05:28 59° 315° (NW) 661 3.3 -25.7°
